Preview of NWS' New Version of Forecast
This preview is not operational and should not be used for support decisions.

Regional Weather Roundup (RWR)

Issued by National Weather Service (NWS)

                            
000
ASUS44 KMEG 190300
RWRTN 
TENNESSEE HOURLY STATE WEATHER ROUNDUP
NATIONAL WEATHER SERVICE MEMPHIS TN
1000 PM CDT THU APR 18 2019

TNZ002-004-019-021-049-052-054-088>092-190400-
WEST TENNESSEE
  
CITY           SKY/WX    TMP DP  RH WIND       PRES   REMARKS
MEMPHIS INTL   RAIN      53  53 100 N22G35    29.61R FOG              
NWS MEMPHIS      N/A     60 N/A N/A MISG        N/A                   
JACKSON        CLOUDY    59  57  93 W5        29.59S                  
DYERSBURG      LGT RAIN  52  50  93 N21       29.62S                  
$$

TNZ008-025-027-028-033-062-065-066-190400-
NORTH MIDDLE TENNESSEE
  
CITY           SKY/WX    TMP DP  RH WIND       PRES   REMARKS
NASHVILLE      LGT RAIN  61  58  90 CALM      29.67F FOG              
CLARKSVILLE    RAIN      60  57  89 E6        29.62F FOG              
SMYRNA         RAIN      60  59  96 NW5       29.67F                  
CROSSVILLE     HVY RAIN  63  56  78 S9G22     29.72S                  
$$

TNZ061-075-076-078-094-096-097-190400-
SOUTH MIDDLE TENNESSEE
  
CITY           SKY/WX    TMP DP  RH WIND       PRES   REMARKS
$$

TNZ017-018-042-046-047-190400-
NORTHEAST TENNESSEE
  
CITY           SKY/WX    TMP DP  RH WIND       PRES   REMARKS
TRI CITIES     MOCLDY    69  52  54 S5        29.80S                  
$$

TNZ012-013-036-069-073-074-190400-
CENTRAL EAST TENNESSEE
  
CITY           SKY/WX    TMP DP  RH WIND       PRES   REMARKS
KNOXVILLE      CLOUDY    73  51  46 S9        29.69F                  
OAK RIDGE      MOCLDY    74  53  48 S3        29.70F                  
$$

TNZ083-085-099-190400-
SOUTHEAST TENNESSEE
  
CITY           SKY/WX    TMP DP  RH WIND       PRES   REMARKS
CHATTANOOGA    LGT RAIN  71  58  63 SE9G18    29.67F                  
$$

SKY/WX REPORTED AS FAIR MEANS FEW OR NO CLOUDS BELOW
12 THOUSAND FEET.